SCP
0 0 0 0 0 0 0 0 0 0 0 0 0 0 0 0 0 0 0 0 0 0 0 0 0 0 0 0 0 0 0 0 0 0 0 0 0 0 0 0 0 0 0 0
0 0 0 0 0 0 0 0 0 0 0 0 0 0 0 0 0 0 0 0 0 0 0 0 0 0 0 0 0 0 0 0 0 0 0 0 0 0 0 0 0 0 0 0
0 0 0 0 0 0 0 0 0 0 0 0 0 0 0 0 0 0 0 0 0 0 0 0 0 0 0 0 0 0 0 0 0 0 0 0 0 0 0 0 0 0 0 0
0 0 0 0 0 0 0 0 0 0 0 0 0 0 0 0 0 0 0 0 0 0 0 0 0 0 0 0 0 0 0 0 0 0 0 0 0 0 0 0 0 0 0 0
0 0 0 0 0 0 0 0 0 0 0 0 0 0 0 0 0 0 0 0 0 0 0 0 0 0 0 0 0 0 0 0 0 0 0 0 0 0 0 0 0 0 0 0
0 0 0 0 0 0 0 0 0 0 0 0 0 0 0 0 0 0 0 0 0 0 0 0 0 0 0 0 0 0 0 0 0 0 0 0 0 0 0 0 0 0 0 0
0 0 0 0 0 0 0 0 0 0 0 0 0 0 0 0 0 0 0 0 0 0 0 0 0 0 0 0 0 0 0 0 0 0 0 0 0 0 0 0 0 0 0 0
0 0 0 0 0 0 0 0 0 0 0 0 0 0 0 0 0 0 0 0 0 0 0 0 0 0 0 0 0 0 0 0 0 0 0 0 0 0 0 0 0 0 0 0
0 0 0 0 0 0 0 0 0 0 0 0 0 0 0 0 0 0 0 0 0 0 0 0 0 0 0 0 0 0 0 0 0 0 0 0 0 0 0 0 0 0 0 0
0 0 0 0 0 0 0 0 0 0 0 0 0 0 0 0 0 0 0 0 0 0 0 0 0 0 0 0 0 0 0 0 -0 -0 0 0 0 0 0 0 0 0 0 0
0 0 0 0 0 0 0 0 0 0 0 0 0 0 0 0 0 0 0 0 0 0 0 0 0 -0 0 0 0 0 0 -0 -0 -0 0 0 0 0 0 0 0 0 0 0
0 0 0 0 0 0 0 0 0 0 0 0 0 0 -0 0 0 0 0 0 0 0 0 0 0 0 0 0 0 0 -0 -0 -0 -0 0 0 0 0 0 0 0 0 0 0
0 0 0 0 0 0 0 0 0 0 0 0 0 -0 0 0 0 0 0 0 0 0 0 0 0 0 0 0 0 0 0 0 0 0 0 0 0 0 0 0 0 0 0 0
0 0 0 0 0 0 0 0 0 0 0 0 0 0 0 0 0 0 0 0 0 0 0 0 0 0 0 0 0 0 0 0 0 0 0 0 0 0 0 0 0 0 0 0
0 0 0 0 0 0 0 0 0 0 0 0 0 0 0 0 0 0 0 0 0 0 0 0 0 0 -0 -0 -0 -0 0 0 0 0 0 0 0 -0 0 0 0 0 0 0
0 0 0 0 0 0 0 0 0 0 0 0 0 0 0 0 0 0 0 0 0 0 0 0 0 0 -0 -0 -0 -0 0 0 0 0 0 0 -0 -0 -0 0 0 0 0 0
0 0 0 0 0 0 0 0 0 0 0 0 0 0 0 0 0 0 0 0 0 0 0 0 0 0 0 -0 -0 0 0 0 0 0 0 0 0 -0 0 0 0 0 0 0
0 0 0 0 0 0 0 0 0 0 0 0 0 0 0 0 0 0 0 0 0 0 0 0 0 0 0 0 0 0 0 0 0 0 0 0 0 0 0 0 0 0 0 0
0 0 0 0 0 0 0 0 0 0 0 0 0 0 0 0 0 0 0 0 0 0 0 0 0 0 0 0 0 0 0 0 0 0 0 0 0 0 0 0 0 0 0 0
0 0 0 0 0 0 0 0 0 0 0 0 0 0 0 0 0 0 0 0 0 0 0 0 0 0 0 0 0 0 0 0 0 0 0 0 0 0 0 0 0 0 0 0
0 0 0 0 0 0 0 0 0 0 0 0 0 0 0 0 0 0 0 0 0 0 0 0 0 0 0 0 0 0 0 0 0 0 0 0 0 0 0 0 0 0 0 0
0 0 0 0 0 0 0 0 0 0 0 0 0 0 0 0 0 0 0 0 0 0 0 0 0 0 0 0 0 0 0 0 0 0 0 0 0 0 0 0 0 0 0 0
0 0 0 0 0 0 0 0 0 0 0 0 0 0 0 0 0 0 0 0 0 0 0 0 0 0 0 0 0 0 0 0 0 0 0 0 0 0 0 0 0 0 0 0
0 0 0 0 0 0 0 0 0 0 0 0 0 0 0 0 0 0 0 0 0 0 0 0 -0 0 0 0 0 0 0 0 0 0 0 0 0 0 0 0 0 0 0 0
0 0 0 0 0 0 0 0 0 0 0 0 0 0 0 0 0 0 0 0 0 0 0 0 0 0 0 0 0 0 0 0 0 0 0 0 0 0 0 0 0 0 0 0
0 0 0 0 0 0 0 0 0 0 0 0 0 0 0 0 0 0 0 0 0 0 0 0 0 0 0 0 0 0 0 0 0 0 0 0 0 0 0 0 0 0 0 0
Wind_Speed
2 1 2 3 4 5 5 5 6 5 2 3 4 4 3 1 1 0 1 2 2 3 3 4 3 4 5 5 5 4 3 3 2 2 2 2 2 2 2 2 2 3 4 5
2 3 4 4 4 5 6 6 7 5 4 4 2 4 3 3 2 1 0 1 2 2 3 4 4 5 5 5 5 4 4 3 3 2 2 2 2 2 2 2 2 3 3 4
3 2 3 4 4 5 5 5 7 6 6 3 2 4 4 3 2 1 1 0 1 2 2 3 3 4 3 4 4 4 4 3 3 3 2 2 2 2 1 2 2 3 3 3
3 4 5 3 3 4 6 5 7 6 4 3 3 4 4 3 2 2 1 0 1 2 2 2 3 3 3 3 3 4 4 4 4 3 2 2 2 2 3 2 2 3 3 3
1 2 3 3 4 4 4 5 7 6 5 5 5 5 4 4 3 3 2 1 0 1 2 3 3 3 4 4 3 3 4 4 4 4 3 2 2 2 2 3 3 3 3 3
2 0 2 3 5 3 4 4 4 4 3 6 7 5 4 2 4 3 2 1 0 1 1 2 3 3 3 4 3 3 4 5 5 4 3 3 3 3 4 4 3 3 3 3
2 2 1 2 3 2 2 0 1 1 3 6 3 5 4 1 1 1 1 1 2 2 2 2 3 4 4 4 4 4 4 4 5 5 4 3 3 3 3 3 3 3 3 3
2 1 2 1 1 2 2 2 1 2 3 3 2 5 2 2 2 2 2 2 3 3 4 4 4 4 4 4 4 4 4 4 5 5 5 4 3 2 2 4 4 4 3 4
2 2 1 0 1 2 2 2 1 2 2 3 4 3 2 1 1 1 2 2 3 3 4 5 5 5 4 5 5 4 4 5 5 5 5 5 5 3 3 4 4 3 4 4
3 3 2 1 2 3 2 1 0 2 2 4 5 5 3 2 2 1 2 2 3 4 4 4 4 4 4 4 5 5 5 5 5 5 5 6 5 5 4 3 4 4 5 5
3 2 2 1 2 2 2 2 2 2 2 2 4 3 1 1 2 2 2 2 2 3 4 4 4 4 4 4 4 5 5 5 5 5 6 6 6 5 5 4 4 4 4 5
2 2 3 3 1 1 1 2 2 2 3 3 4 5 1 2 2 2 2 2 3 3 3 3 4 4 4 4 5 5 5 5 5 5 5 5 6 6 6 6 6 5 5 5
2 1 3 2 1 0 2 2 3 3 2 4 5 7 1 2 3 3 3 3 3 4 4 3 4 4 4 4 4 4 5 5 5 5 5 5 5 6 6 6 6 6 5 5
2 1 3 4 2 2 4 5 4 4 4 6 9 10 7 5 5 4 4 4 4 4 4 4 4 4 4 4 4 4 4 4 5 5 5 5 5 6 6 6 6 6 6 6
1 2 3 6 7 7 8 9 8 9 8 8 9 10 11 8 5 5 4 5 5 5 5 5 5 5 5 5 5 4 5 5 5 6 6 6 6 6 6 6 6 7 6 6
1 2 2 5 5 7 10 11 11 11 10 11 13 15 9 7 5 4 4 5 5 5 6 6 6 6 6 6 6 5 5 5 5 6 6 6 6 6 6 6 6 7 7 6
1 1 1 4 4 5 9 9 10 8 8 8 12 11 5 5 5 4 4 5 5 5 6 6 6 5 6 6 5 5 6 6 6 7 7 6 6 6 6 6 6 7 7 6
2 1 2 3 3 7 7 1 3 6 8 8 8 7 5 5 4 4 5 4 4 5 6 6 6 6 5 5 5 6 6 6 7 7 7 7 6 6 6 6 7 7 6 6
4 3 2 2 4 10 6 3 2 4 7 5 7 6 5 4 5 5 3 3 4 5 5 5 5 6 6 6 6 6 7 7 7 8 8 7 7 7 7 7 7 7 6 7
2 3 3 3 4 8 4 1 2 2 6 3 2 4 4 4 5 5 4 5 5 6 5 6 6 6 6 6 6 7 8 7 8 8 8 8 7 8 8 8 8 6 6 7
2 3 6 6 7 10 5 2 3 2 6 1 1 3 3 4 6 6 6 6 5 5 5 5 6 5 6 6 6 7 8 8 8 8 8 9 8 8 8 8 7 6 6 6
7 6 6 5 7 11 3 5 5 7 2 2 3 3 4 6 7 7 6 6 6 6 5 5 5 6 6 5 6 7 8 8 8 8 9 9 9 8 7 7 7 6 5 6
8 9 6 9 11 5 4 5 5 2 4 4 4 5 5 6 7 7 7 7 6 6 6 5 6 7 6 5 5 7 8 7 8 9 9 9 9 8 7 7 6 5 4 4
6 5 5 7 10 8 7 6 6 5 6 6 5 5 5 7 8 8 7 7 7 6 6 5 6 6 7 6 5 6 7 7 7 9 9 8 8 7 6 5 5 4 4 4
7 5 6 10 9 7 8 8 8 6 5 5 5 5 5 6 7 7 7 7 7 7 6 5 6 7 8 7 6 6 6 6 7 8 8 8 7 7 6 5 5 5 5 5
8 9 9 11 8 6 6 4 3 4 5 5 6 7 6 6 7 7 7 6 6 7 6 6 7 8 8 7 7 6 5 5 6 7 7 6 6 5 5 5 5 6 7 8
Wind_Direction
163 156 223 231 232 262 285 278 271 280 285 256 249 254 267 272 302 14 40 32 34 29 25 30 31 36 34 26 18 11 11 1 2 341 312 293 274 279 270 250 241 233 221 209
193 240 262 271 271 265 271 278 285 301 320 290 263 263 255 218 222 238 54 31 25 12 19 20 27 36 35 26 15 8 6 358 358 337 307 283 284 272 263 270 256 257 251 235
220 299 290 255 267 272 253 266 277 291 316 292 285 274 239 209 194 207 220 320 352 1 12 25 30 30 31 25 13 2 0 357 351 350 349 345 322 320 301 306 295 276 260 244
247 288 308 281 266 272 258 282 292 289 285 264 240 265 234 203 207 204 203 227 315 339 352 11 28 24 21 17 13 4 2 1 0 2 3 5 330 295 293 298 285 295 282 271
210 344 310 278 280 289 293 303 282 273 262 271 249 256 254 199 220 213 192 187 252 356 14 15 22 25 23 20 17 8 1 360 0 359 358 355 329 311 321 327 320 304 289 276
238 262 318 304 290 286 308 288 276 259 244 249 236 240 262 208 223 209 196 175 116 29 24 13 16 19 18 21 18 14 8 358 354 356 357 351 331 332 338 336 326 318 309 294
255 190 192 298 300 286 320 357 294 247 218 235 205 229 245 142 52 53 69 61 41 31 18 5 12 14 10 10 7 3 1 349 348 349 345 340 328 319 311 314 313 319 317 312
310 241 155 222 274 281 260 219 182 236 260 294 249 231 232 114 73 42 34 33 26 14 17 15 11 8 360 352 353 356 351 341 345 344 337 331 323 312 315 317 316 312 309 307
326 295 55 235 288 262 240 233 258 287 295 280 254 254 269 162 122 53 33 30 13 8 9 3 0 1 359 355 353 352 349 347 346 343 337 331 329 324 322 326 321 322 323 322
328 293 290 268 250 249 250 233 180 208 243 261 261 246 246 206 226 333 34 31 20 9 2 358 356 356 356 355 354 357 355 349 344 343 340 338 333 331 323 318 317 316 318 319
331 288 283 250 212 222 206 199 209 233 234 247 272 263 357 76 78 40 30 26 14 2 352 344 343 347 347 351 351 348 345 341 341 340 338 334 333 336 333 321 310 308 310 312
334 305 276 258 233 272 219 221 199 208 245 243 267 268 291 48 23 18 356 358 1 352 338 337 340 342 345 343 340 339 336 333 332 332 332 329 330 331 328 325 322 319 311 307
333 294 298 282 205 244 244 229 236 243 253 241 241 259 263 351 337 343 341 336 333 329 325 328 334 332 329 326 324 326 328 326 326 326 323 323 323 322 321 320 318 315 310 309
335 249 221 248 294 310 277 261 235 222 227 242 239 260 276 289 300 314 319 313 313 311 311 315 314 311 311 311 310 314 316 317 318 318 312 311 312 312 312 312 312 311 309 305
319 262 259 272 287 286 271 263 246 232 231 241 258 265 270 274 283 293 301 309 310 308 313 314 311 309 309 308 306 308 309 312 313 309 304 301 302 305 305 307 308 309 306 302
243 268 294 281 276 282 272 261 251 247 243 248 263 271 271 278 288 288 289 294 295 304 313 315 315 314 311 310 309 314 313 311 306 298 294 295 297 299 300 302 305 303 300 300
230 226 285 275 307 322 274 245 228 228 229 235 251 263 286 294 293 299 303 298 296 305 312 313 311 308 307 306 307 307 308 312 308 298 294 295 295 296 296 299 300 295 295 297
205 193 239 288 332 253 245 234 229 243 254 249 262 281 290 288 295 302 301 298 310 320 314 309 309 307 305 305 307 309 311 309 305 300 298 297 296 293 295 294 292 291 294 291
211 198 233 252 268 273 276 238 225 246 271 256 262 278 294 317 318 302 322 342 321 315 311 309 308 308 310 312 314 313 310 309 307 306 304 302 297 292 289 285 285 288 290 286
237 205 220 229 248 255 258 135 47 0 282 275 265 290 308 325 301 290 327 329 319 315 309 310 311 311 311 313 316 309 304 303 302 303 302 300 295 289 286 283 282 284 283 281
179 206 219 229 242 262 260 151 102 191 254 283 299 292 295 281 270 289 306 307 307 307 311 318 316 309 308 313 314 304 302 301 305 308 305 301 296 289 285 283 281 280 278 279
188 194 206 204 225 251 207 145 194 228 268 283 280 272 273 275 285 295 300 301 307 308 310 313 307 302 304 308 305 298 297 304 311 309 304 300 296 290 286 282 280 279 275 273
209 203 198 203 222 244 185 211 235 261 279 285 286 291 285 281 283 289 293 297 300 300 300 302 298 299 304 307 303 294 298 310 311 306 299 295 293 288 284 279 278 279 273 270
228 212 230 253 256 257 256 261 265 262 263 273 275 279 280 280 284 288 291 295 297 296 296 299 297 296 300 308 305 293 301 311 306 300 298 296 295 293 288 280 274 271 271 270
223 198 231 255 266 279 262 252 260 269 275 279 281 281 280 281 285 288 290 292 293 295 296 296 292 292 295 303 301 301 307 313 306 301 299 299 295 291 290 284 280 277 270 268
210 206 218 241 231 227 252 249 254 263 271 277 284 287 283 278 281 286 286 289 292 293 296 296 292 290 292 296 295 298 304 305 302 300 300 300 298 297 294 294 301 301 297 299